SCP
0 0 0 0 0 0 0 0 0 0 0 0 0 0 0 0 0 0 0 0 0 0 0 0 0 0 0 0 0 0 0 0 0 0 -0 -0 0 0 0 0 0 0 0 0 0 0 0 0 0
0 0 0 0 0 0 0 0 0 0 0 0 0 0 0 0 0 0 0 0 0 0 0 0 0 0 0 0 0 0 0 0 0 0 0 0 0 0 0 0 0 0 0 0 0 0 0 0 0
0 0 0 0 0 0 0 0 0 0 0 0 0 0 0 0 0 0 0 0 0 0 0 0 0 0 0 0 0 0 0 0 0 0 0 0 0 0 0 0 0 0 0 0 0 0 0 0 0
0 0 0 0 0 0 0 0 0 0 0 0 0 0 0 0 0 0 0 0 0 0 0 0 0 0 0 0 0 0 0 0 0 0 0 0 0 0 0 0 0 0 0 0 0 0 0 0 0
0 0 0 0 0 0 0 0 0 0 0 0 0 0 0 0 0 0 0 0 0 0 0 0 0 0 0 0 0 0 0 0 0 0 0 0 0 0 0 0 0 0 0 0 0 0 0 0 0
0 0 0 0 0 0 0 0 0 0 0 0 0 0 0 0 0 0 0 0 0 0 0 0 0 0 0 0 0 0 0 0 0 0 0 0 0 0 0 0 0 0 0 0 0 0 0 0 0
0 0 0 0 0 0 0 0 0 0 0 0 0 0 0 0 0 0 0 0 0 0 0 0 0 0 0 0 0 0 0 0 0 0 0 0 0 0 0 0 0 0 0 0 0 0 0 0 0
0 0 0 0 0 0 0 0 0 0 0 0 0 0 0 0 0 0 0 0 0 0 0 0 0 0 0 0 0 0 0 0 0 0 0 0 0 0 0 0 0 0 0 0 0 0 0 0 0
0 0 0 0 0 0 0 0 0 0 0 0 0 0 0 0 0 0 0 0 0 0 0 0 0 0 0 0 0 0 0 0 0 0 0 0 0 0 0 0 0 0 0 0 0 0 0 0 0
0 0 0 0 0 0 0 0 0 0 0 0 0 0 0 0 0 0 0 0 0 0 0 0 0 0 0 0 0 0 0 0 0 0 0 0 0 0 0 0 0 0 0 0 0 0 0 0 0
0 0 0 0 0 0 0 0 0 0 0 0 0 0 0 0 0 0 0 0 0 0 0 0 0 0 0 0 0 0 0 0 0 0 0 0 0 0 0 0 0 0 0 0 0 0 0 0 0
0 0 0 0 0 0 0 0 0 0 0 0 0 0 0 0 0 0 0 0 0 0 0 0 0 0 0 0 0 0 0 0 0 0 0 0 0 0 0 0 0 0 0 0 0 0 0 0 0
0 0 0 0 0 0 0 0 0 0 0 0 0 0 0 0 0 0 0 0 0 0 0 0 0 0 0 0 0 0 0 0 0 0 0 0 0 0 0 0 0 0 0 0 0 0 0 0 0
0 0 0 0 0 0 0 0 0 0 0 0 0 0 0 0 0 0 0 0 0 0 0 0 0 0 0 0 0 0 0 0 0 0 0 0 0 0 0 0 0 0 0 0 0 0 0 0 0
0 0 0 0 0 0 0 0 0 0 0 0 0 0 0 0 0 0 0 0 0 0 0 0 0 0 0 0 0 0 0 0 0 0 0 0 0 0 0 0 0 0 0 0 0 0 0 0 0
0 0 0 0 0 0 0 0 0 0 0 0 0 0 0 0 0 0 0 0 0 0 0 0 0 0 0 0 0 0 0 0 0 0 0 0 0 0 0 0 0 0 0 0 0 0 0 0 0
0 0 0 0 0 0 0 0 0 0 0 0 0 0 0 0 0 0 0 0 0 0 0 0 0 0 0 0 0 0 0 0 0 0 0 0 0 0 0 0 0 0 0 0 0 0 0 0 0
0 0 0 0 0 0 0 0 0 0 0 0 0 0 0 0 0 0 0 0 0 0 0 0 0 0 0 0 0 0 0 0 0 0 0 0 0 0 0 0 0 0 0 0 0 0 0 0 0
0 0 0 0 0 0 0 0 0 0 0 0 0 0 0 0 0 0 0 0 0 0 0 0 0 0 0 0 0 0 0 0 0 0 0 0 0 0 0 0 0 0 0 0 0 0 0 0 0
0 0 0 0 0 0 0 0 0 0 0 0 0 0 0 0 0 0 0 0 0 0 0 0 0 0 0 0 0 0 0 0 0 0 0 0 0 0 0 0 0 0 0 0 0 0 0 0 0
0 0 0 0 0 0 0 0 0 0 0 0 0 0 0 0 0 0 0 0 0 0 0 0 0 0 0 0 0 0 0 0 0 0 0 0 0 0 0 0 0 0 0 0 0 0 0 0 0
0 0 0 0 0 0 0 0 0 0 0 0 0 0 0 0 0 0 0 0 0 0 0 0 0 0 0 0 0 0 0 0 0 0 0 0 0 0 0 0 0 0 0 0 0 0 0 0 0
0 0 0 0 0 0 0 0 0 0 0 0 0 0 0 0 0 0 0 0 0 0 0 0 0 0 0 0 0 0 0 0 0 0 0 0 0 0 0 0 0 0 0 0 0 0 0 0 0
0 0 0 0 0 0 0 0 0 0 0 0 0 0 0 0 0 0 0 0 0 0 0 0 0 0 0 0 0 0 0 0 0 0 0 0 0 0 0 0 0 0 0 0 0 0 0 0 0
0 0 0 0 0 0 0 0 0 0 0 0 0 0 0 0 0 0 0 0 0 0 0 0 0 0 0 0 0 0 0 0 0 0 0 0 0 0 0 0 0 0 0 0 0 0 0 0 0
0 0 0 0 0 0 0 0 0 0 0 0 0 0 0 0 0 0 0 0 0 0 0 0 0 0 0 0 0 0 0 0 0 0 0 0 0 0 0 0 0 0 0 0 0 0 0 0 0
0 0 0 0 0 0 0 0 0 0 0 0 0 0 0 0 0 0 0 0 0 0 0 0 0 0 0 0 0 0 0 0 0 0 0 0 0 0 0 0 0 0 0 0 0 0 0 0 0
0 0 0 0 0 0 0 0 0 0 0 0 0 0 0 0 0 0 0 0 0 0 0 0 0 0 0 0 0 0 0 0 0 0 0 0 0 0 0 0 0 0 0 0 0 0 0 0 0
0 0 0 0 0 0 0 0 0 0 0 0 0 0 0 0 0 0 0 0 0 0 0 0 0 0 0 0 0 0 0 0 0 0 0 0 0 0 0 0 0 0 0 0 0 0 0 0 0
0 0 0 0 0 0 0 0 0 0 0 0 0 0 0 0 0 0 0 0 0 0 0 0 0 0 0 0 0 0 0 0 0 0 0 0 0 0 0 0 0 0 0 0 0 0 0 0 0
Wind_Speed_500mb
11 9 7 5 7 7 5 8 4 2 4 4 8 21 20 14 6 6 35 24 28 29 25 28 26 25 24 23 23 17 12 14 15 11 11 12 11 8 5 2 4 9 13 15 17 16 16 16 16
10 8 4 5 7 2 8 9 3 4 8 24 22 17 14 6 6 25 33 30 32 35 31 29 27 26 24 19 13 7 7 7 8 8 11 12 11 7 4 1 5 9 12 14 15 16 15 15 14
14 14 6 8 5 9 7 7 8 6 8 4 9 19 9 6 16 34 36 35 35 42 34 33 30 26 20 15 10 9 5 4 6 5 5 5 5 4 1 2 6 10 12 14 16 17 17 16 16
16 10 6 8 12 10 8 7 4 8 9 8 21 15 12 9 11 13 40 35 38 37 35 33 27 24 23 16 10 9 10 8 7 7 9 8 6 4 1 4 6 10 12 14 15 15 16 16 16
14 8 6 4 9 5 3 13 17 4 7 10 9 9 8 13 9 11 38 36 36 34 35 38 30 26 18 16 13 11 13 11 11 12 11 7 4 3 3 7 11 13 15 16 17 16 14 15 14
5 5 6 6 9 4 2 1 6 7 6 12 13 14 5 12 7 21 36 35 30 36 31 27 20 15 15 13 10 10 12 12 12 14 10 4 1 2 4 6 9 12 14 15 17 17 16 14 15
7 6 8 8 6 5 3 7 5 7 9 9 13 9 14 17 15 29 32 32 28 24 26 27 22 17 15 15 13 12 10 11 11 9 5 3 2 5 8 10 12 14 15 17 16 17 16 15 14
4 8 3 6 4 3 8 4 5 9 3 11 7 11 10 30 28 28 26 28 29 27 23 21 20 17 14 16 17 17 13 14 11 7 4 3 4 6 9 11 14 14 15 15 17 17 17 17 15
3 8 1 2 2 4 7 4 6 3 7 7 5 10 7 36 35 34 33 30 28 27 26 24 22 19 20 18 18 17 16 12 8 5 4 5 7 9 11 13 14 15 14 16 17 17 17 17 18
7 7 6 5 3 0 4 4 4 5 4 7 12 15 28 35 37 38 38 32 27 21 23 23 23 22 22 20 18 15 13 9 6 3 5 7 10 11 13 15 16 17 17 17 18 18 18 17 18
5 8 9 2 1 2 6 1 5 4 3 9 15 31 34 37 39 36 31 25 20 19 23 23 25 24 22 22 18 15 11 8 5 5 7 9 11 13 14 16 18 18 19 19 19 20 19 19 16
7 4 4 5 2 0 1 8 4 2 4 4 6 24 31 35 40 41 38 34 30 26 23 22 27 25 25 22 19 16 12 10 7 8 8 10 12 15 18 20 20 20 20 21 20 20 20 20 20
5 5 5 5 2 1 4 3 5 2 8 7 18 25 25 27 28 31 29 28 29 28 27 26 27 27 25 23 19 16 13 10 8 8 9 12 15 18 19 19 19 20 21 21 20 18 17 16 17
5 8 7 3 1 4 2 4 4 4 18 13 18 19 17 18 19 23 29 28 33 27 26 27 29 30 29 25 21 17 14 11 10 10 13 16 19 21 21 20 19 20 21 21 20 19 18 18 19
11 6 2 7 8 4 4 2 7 12 19 20 21 20 19 17 19 23 18 26 28 29 26 25 28 34 33 28 24 19 16 13 12 12 14 17 19 18 16 16 18 20 22 22 20 20 21 21 22
5 8 3 3 14 1 2 4 2 7 10 18 13 15 21 22 18 27 38 35 29 33 34 30 30 33 35 30 25 21 19 16 14 14 15 17 16 15 15 18 21 24 24 19 18 19 20 23 25
12 3 5 5 6 7 1 4 13 2 10 14 19 20 22 22 20 22 24 37 41 32 33 34 31 32 35 32 29 25 22 20 17 16 15 17 15 16 19 22 23 21 16 15 16 21 26 27 27
6 1 4 3 8 9 3 1 8 15 29 28 26 21 16 16 16 20 25 30 40 39 31 30 26 29 33 35 33 30 27 21 18 17 16 15 15 20 23 25 23 16 13 14 19 21 25 30 33
4 2 1 2 6 5 2 3 4 10 24 23 20 14 6 4 7 14 20 32 34 40 37 31 25 24 30 36 35 30 23 22 18 16 15 15 17 22 25 24 21 17 15 16 20 23 26 28 34
10 4 3 5 6 5 5 10 4 6 7 17 17 11 5 1 4 5 4 16 29 28 32 36 27 21 22 29 29 27 22 20 18 17 16 15 22 25 26 25 22 20 18 19 21 24 27 30 36
7 4 6 4 13 4 12 9 6 2 20 18 14 11 7 5 5 5 5 12 17 20 26 33 26 20 19 24 30 28 24 21 20 19 17 19 23 25 25 24 23 21 20 20 21 24 27 30 30
2 6 4 7 8 5 9 9 10 12 9 6 11 12 10 7 8 8 9 11 15 16 22 29 26 20 18 21 25 26 26 25 23 22 22 22 25 26 26 25 24 22 23 22 22 24 26 29 31
2 7 5 5 8 7 10 7 13 9 12 10 13 17 14 10 8 10 10 10 13 16 19 24 24 22 21 21 23 26 27 27 27 25 24 25 27 27 27 27 25 24 25 25 25 26 28 30 32
3 6 10 7 6 5 7 7 11 11 15 9 18 22 20 16 12 9 10 10 13 16 19 23 24 24 24 24 24 25 26 28 30 30 30 30 32 32 30 29 29 29 29 30 31 33 33 34 36
12 11 7 10 7 11 5 2 20 12 10 24 34 33 25 19 16 14 13 13 14 15 16 17 18 19 19 19 20 22 25 28 32 36 40 42 43 41 38 36 34 34 35 37 40 41 42 41 41
5 10 9 11 4 9 6 11 12 5 7 31 40 34 27 23 20 18 17 17 16 15 14 13 11 10 11 14 17 21 25 29 32 36 39 42 44 45 45 46 48 47 46 46 48 50 49 50 49
4 2 5 13 3 7 6 15 14 7 5 27 35 32 30 27 24 22 20 18 16 13 9 6 2 3 7 11 14 18 23 27 30 32 35 37 38 40 41 43 46 51 55 56 56 57 56 57 56
7 4 7 6 3 9 11 13 12 12 19 9 24 38 35 31 29 26 22 18 14 9 3 5 8 12 15 17 21 25 29 33 37 40 43 45 47 48 48 47 47 47 47 48 53 57 58 62 61
4 3 7 7 8 8 4 13 13 18 23 29 44 47 43 40 36 31 26 20 16 12 11 13 14 17 20 23 28 32 35 38 39 41 43 46 46 46 49 53 55 54 52 50 54 54 54 59 62
4 8 9 8 11 5 4 18 7 12 22 46 56 50 46 43 37 33 27 22 18 14 13 15 19 24 29 33 37 41 43 44 44 43 44 46 47 45 47 48 49 52 56 58 61 62 61 63 63
Wind_Direction_500mb
258 282 304 315 47 60 275 270 265 166 73 53 93 93 114 75 30 152 139 138 157 158 153 152 148 149 151 153 154 148 154 169 172 174 168 158 155 155 148 89 354 344 344 345 348 350 350 347 346
243 235 259 48 90 67 273 292 160 311 99 111 86 83 53 79 86 143 142 143 172 154 162 163 163 158 164 169 171 194 256 270 177 174 163 159 153 144 139 326 318 326 330 332 336 337 337 334 335
198 192 173 107 138 190 200 327 183 120 87 122 90 74 82 74 108 152 153 161 159 160 169 165 176 180 180 175 173 214 234 234 176 157 165 166 160 154 146 329 325 328 326 328 327 324 323 320 318
166 157 102 105 217 248 177 204 229 116 101 71 116 66 84 139 153 187 171 172 170 167 173 172 180 187 188 182 187 241 215 219 210 197 207 194 176 180 246 307 310 315 322 326 329 330 330 327 320
141 123 78 156 249 252 247 189 176 185 144 113 153 155 90 134 178 191 171 183 190 177 179 188 182 185 187 194 198 238 247 217 208 218 199 180 180 289 337 322 321 326 331 334 335 337 341 336 332
110 112 78 211 258 319 13 123 168 66 127 122 102 116 116 147 170 172 173 186 193 198 195 199 187 182 193 202 208 230 235 226 216 206 191 185 215 285 307 323 331 333 334 331 331 330 333 336 332
119 93 194 186 249 55 310 343 48 104 144 63 136 87 149 169 147 164 179 191 200 203 209 216 230 233 224 207 182 170 194 200 203 195 176 231 307 328 332 337 338 336 333 331 328 328 327 327 325
122 99 144 4 244 166 327 56 76 66 69 94 123 170 190 179 162 165 180 197 207 213 213 216 218 212 200 183 170 168 189 194 191 184 180 252 294 315 322 325 326 324 322 321 321 321 320 321 319
128 62 181 26 169 168 3 135 66 69 131 93 108 150 193 172 174 177 184 190 198 208 218 223 221 205 194 192 192 188 198 206 195 213 247 280 306 319 322 319 317 316 318 318 317 313 314 314 313
100 107 195 218 214 183 353 106 347 128 130 70 104 144 155 171 181 192 196 201 199 204 200 204 208 199 194 201 197 201 199 203 209 250 297 306 317 322 324 323 319 321 320 318 315 312 311 307 307
135 168 162 226 123 346 315 42 13 90 360 215 191 163 167 175 188 201 207 224 231 211 204 197 200 204 205 202 204 204 205 212 239 275 293 306 314 318 318 320 321 322 319 317 316 313 312 308 306
96 57 148 166 350 183 304 317 6 143 207 139 184 182 180 187 194 202 211 219 226 224 217 208 207 205 206 205 205 206 206 222 244 273 294 307 312 315 314 313 313 315 312 313 313 313 315 317 319
105 163 114 138 52 326 311 286 275 212 172 156 160 180 192 198 203 207 213 216 225 231 233 224 219 214 212 211 211 213 217 232 253 270 290 302 308 310 311 310 312 313 315 317 317 316 317 319 322
141 131 137 108 43 297 315 234 349 209 184 169 180 188 196 201 212 209 210 214 220 225 230 233 228 221 218 217 217 219 227 237 256 286 301 311 314 315 314 316 319 319 320 320 322 321 324 327 329
141 97 67 13 331 249 319 13 232 172 164 170 187 199 205 214 217 225 241 236 238 240 238 241 235 226 221 218 220 222 231 241 261 281 297 306 311 310 310 313 317 317 318 320 322 326 328 331 330
71 43 71 326 2 333 44 244 285 160 176 179 164 163 155 170 188 217 228 234 244 238 237 240 242 230 223 220 221 227 233 245 263 278 296 308 310 311 313 314 316 314 313 315 320 323 331 333 332
16 195 211 312 50 313 181 187 342 89 149 140 156 157 171 181 191 205 216 223 235 245 239 241 244 232 223 218 220 224 232 244 258 276 297 306 307 312 312 314 315 315 311 315 326 333 335 337 339
240 209 264 250 345 352 304 271 351 53 130 123 132 136 151 183 206 224 228 222 222 229 241 244 243 230 223 219 221 224 232 245 259 276 295 302 310 316 316 316 315 314 309 318 328 334 337 339 342
282 271 298 285 8 340 348 284 265 106 118 129 132 128 137 230 273 275 251 224 219 218 225 230 232 229 227 224 223 228 239 252 263 272 288 293 308 317 314 311 306 301 298 314 326 333 338 342 342
43 71 310 301 360 351 45 280 229 176 142 153 142 128 104 55 319 329 276 222 216 211 214 219 224 237 242 231 230 235 243 253 249 260 287 295 309 312 310 304 297 294 297 312 322 329 335 342 346
40 44 356 264 325 16 346 311 200 75 123 129 123 123 103 67 54 74 103 176 188 196 195 208 216 236 243 230 230 236 246 249 255 269 281 295 304 307 305 299 293 286 290 300 313 321 328 334 342
103 345 10 14 39 248 26 278 263 207 185 140 132 130 120 106 87 96 116 147 171 176 178 195 211 225 230 233 238 243 249 254 258 263 273 291 302 306 302 297 289 279 283 293 302 311 319 324 329
111 37 45 85 87 47 344 65 267 144 229 203 171 145 135 128 124 108 122 154 160 168 179 185 201 216 233 240 243 246 250 249 251 259 274 291 301 305 302 295 289 282 281 286 292 298 306 311 315
39 47 35 57 79 17 257 125 274 191 207 183 183 165 155 158 156 140 128 133 162 179 190 199 209 221 228 233 239 243 243 246 254 261 270 282 293 298 301 293 283 277 278 282 286 290 296 298 303
56 49 336 351 6 225 301 13 244 240 204 181 171 167 166 171 174 165 158 157 154 158 168 186 198 211 220 228 237 247 254 261 267 272 276 281 286 289 290 289 286 279 276 279 282 285 289 292 294
85 135 152 221 249 270 4 241 254 297 193 171 168 165 170 176 174 165 153 145 141 140 148 158 182 215 241 258 266 270 275 277 279 282 285 287 288 288 287 283 281 280 278 277 279 281 283 286 288
247 62 144 99 44 38 266 293 297 80 71 153 165 174 181 184 179 173 164 158 150 145 142 155 180 257 270 276 280 283 285 284 284 285 287 288 290 291 291 290 287 284 282 282 282 282 282 283 282
147 135 45 7 330 301 291 279 244 239 217 227 195 193 193 191 188 184 181 184 187 192 226 295 293 292 292 295 297 295 292 289 288 288 289 288 286 286 286 286 286 286 287 287 285 283 282 280 279
49 337 40 127 150 197 270 263 215 216 197 203 206 202 200 198 195 194 198 206 215 233 264 290 297 300 303 303 301 300 297 295 294 294 293 292 292 291 290 286 283 284 284 284 283 284 284 281 280
143 183 164 137 256 255 187 266 200 209 223 212 211 205 203 201 202 206 211 219 228 241 270 294 306 310 312 310 307 305 304 301 298 295 293 291 290 290 292 291 291 289 285 282 282 284 284 283 282
Wind_Speed_850mb
11 9 7 5 7 7 5 8 4 2 4 4 8 21 20 14 6 6 35 24 28 29 25 28 26 25 24 23 23 17 12 14 15 11 11 12 11 8 5 2 4 9 13 15 17 16 16 16 16
10 8 4 5 7 2 8 9 3 4 8 24 22 17 14 6 6 25 33 30 32 35 31 29 27 26 24 19 13 7 7 7 8 8 11 12 11 7 4 1 5 9 12 14 15 16 15 15 14
14 14 6 8 5 9 7 7 8 6 8 4 9 19 9 6 16 34 36 35 35 42 34 33 30 26 20 15 10 9 5 4 6 5 5 5 5 4 1 2 6 10 12 14 16 17 17 16 16
16 10 6 8 12 10 8 7 4 8 9 8 21 15 12 9 11 13 40 35 38 37 35 33 27 24 23 16 10 9 10 8 7 7 9 8 6 4 1 4 6 10 12 14 15 15 16 16 16
14 8 6 4 9 5 3 13 17 4 7 10 9 9 8 13 9 11 38 36 36 34 35 38 30 26 18 16 13 11 13 11 11 12 11 7 4 3 3 7 11 13 15 16 17 16 14 15 14
5 5 6 6 9 4 2 1 6 7 6 12 13 14 5 12 7 21 36 35 30 36 31 27 20 15 15 13 10 10 12 12 12 14 10 4 1 2 4 6 9 12 14 15 17 17 16 14 15
7 6 8 8 6 5 3 7 5 7 9 9 13 9 14 17 15 29 32 32 28 24 26 27 22 17 15 15 13 12 10 11 11 9 5 3 2 5 8 10 12 14 15 17 16 17 16 15 14
4 8 3 6 4 3 8 4 5 9 3 11 7 11 10 30 28 28 26 28 29 27 23 21 20 17 14 16 17 17 13 14 11 7 4 3 4 6 9 11 14 14 15 15 17 17 17 17 15
3 8 1 2 2 4 7 4 6 3 7 7 5 10 7 36 35 34 33 30 28 27 26 24 22 19 20 18 18 17 16 12 8 5 4 5 7 9 11 13 14 15 14 16 17 17 17 17 18
7 7 6 5 3 0 4 4 4 5 4 7 12 15 28 35 37 38 38 32 27 21 23 23 23 22 22 20 18 15 13 9 6 3 5 7 10 11 13 15 16 17 17 17 18 18 18 17 18
5 8 9 2 1 2 6 1 5 4 3 9 15 31 34 37 39 36 31 25 20 19 23 23 25 24 22 22 18 15 11 8 5 5 7 9 11 13 14 16 18 18 19 19 19 20 19 19 16
7 4 4 5 2 0 1 8 4 2 4 4 6 24 31 35 40 41 38 34 30 26 23 22 27 25 25 22 19 16 12 10 7 8 8 10 12 15 18 20 20 20 20 21 20 20 20 20 20
5 5 5 5 2 1 4 3 5 2 8 7 18 25 25 27 28 31 29 28 29 28 27 26 27 27 25 23 19 16 13 10 8 8 9 12 15 18 19 19 19 20 21 21 20 18 17 16 17
5 8 7 3 1 4 2 4 4 4 18 13 18 19 17 18 19 23 29 28 33 27 26 27 29 30 29 25 21 17 14 11 10 10 13 16 19 21 21 20 19 20 21 21 20 19 18 18 19
11 6 2 7 8 4 4 2 7 12 19 20 21 20 19 17 19 23 18 26 28 29 26 25 28 34 33 28 24 19 16 13 12 12 14 17 19 18 16 16 18 20 22 22 20 20 21 21 22
5 8 3 3 14 1 2 4 2 7 10 18 13 15 21 22 18 27 38 35 29 33 34 30 30 33 35 30 25 21 19 16 14 14 15 17 16 15 15 18 21 24 24 19 18 19 20 23 25
12 3 5 5 6 7 1 4 13 2 10 14 19 20 22 22 20 22 24 37 41 32 33 34 31 32 35 32 29 25 22 20 17 16 15 17 15 16 19 22 23 21 16 15 16 21 26 27 27
6 1 4 3 8 9 3 1 8 15 29 28 26 21 16 16 16 20 25 30 40 39 31 30 26 29 33 35 33 30 27 21 18 17 16 15 15 20 23 25 23 16 13 14 19 21 25 30 33
4 2 1 2 6 5 2 3 4 10 24 23 20 14 6 4 7 14 20 32 34 40 37 31 25 24 30 36 35 30 23 22 18 16 15 15 17 22 25 24 21 17 15 16 20 23 26 28 34
10 4 3 5 6 5 5 10 4 6 7 17 17 11 5 1 4 5 4 16 29 28 32 36 27 21 22 29 29 27 22 20 18 17 16 15 22 25 26 25 22 20 18 19 21 24 27 30 36
7 4 6 4 13 4 12 9 6 2 20 18 14 11 7 5 5 5 5 12 17 20 26 33 26 20 19 24 30 28 24 21 20 19 17 19 23 25 25 24 23 21 20 20 21 24 27 30 30
2 6 4 7 8 5 9 9 10 12 9 6 11 12 10 7 8 8 9 11 15 16 22 29 26 20 18 21 25 26 26 25 23 22 22 22 25 26 26 25 24 22 23 22 22 24 26 29 31
2 7 5 5 8 7 10 7 13 9 12 10 13 17 14 10 8 10 10 10 13 16 19 24 24 22 21 21 23 26 27 27 27 25 24 25 27 27 27 27 25 24 25 25 25 26 28 30 32
3 6 10 7 6 5 7 7 11 11 15 9 18 22 20 16 12 9 10 10 13 16 19 23 24 24 24 24 24 25 26 28 30 30 30 30 32 32 30 29 29 29 29 30 31 33 33 34 36
12 11 7 10 7 11 5 2 20 12 10 24 34 33 25 19 16 14 13 13 14 15 16 17 18 19 19 19 20 22 25 28 32 36 40 42 43 41 38 36 34 34 35 37 40 41 42 41 41
5 10 9 11 4 9 6 11 12 5 7 31 40 34 27 23 20 18 17 17 16 15 14 13 11 10 11 14 17 21 25 29 32 36 39 42 44 45 45 46 48 47 46 46 48 50 49 50 49
4 2 5 13 3 7 6 15 14 7 5 27 35 32 30 27 24 22 20 18 16 13 9 6 2 3 7 11 14 18 23 27 30 32 35 37 38 40 41 43 46 51 55 56 56 57 56 57 56
7 4 7 6 3 9 11 13 12 12 19 9 24 38 35 31 29 26 22 18 14 9 3 5 8 12 15 17 21 25 29 33 37 40 43 45 47 48 48 47 47 47 47 48 53 57 58 62 61
4 3 7 7 8 8 4 13 13 18 23 29 44 47 43 40 36 31 26 20 16 12 11 13 14 17 20 23 28 32 35 38 39 41 43 46 46 46 49 53 55 54 52 50 54 54 54 59 62
4 8 9 8 11 5 4 18 7 12 22 46 56 50 46 43 37 33 27 22 18 14 13 15 19 24 29 33 37 41 43 44 44 43 44 46 47 45 47 48 49 52 56 58 61 62 61 63 63
Wind_Direction_850mb
258 282 304 315 47 60 275 270 265 166 73 53 93 93 114 75 30 152 139 138 157 158 153 152 148 149 151 153 154 148 154 169 172 174 168 158 155 155 148 89 354 344 344 345 348 350 350 347 346
243 235 259 48 90 67 273 292 160 311 99 111 86 83 53 79 86 143 142 143 172 154 162 163 163 158 164 169 171 194 256 270 177 174 163 159 153 144 139 326 318 326 330 332 336 337 337 334 335
198 192 173 107 138 190 200 327 183 120 87 122 90 74 82 74 108 152 153 161 159 160 169 165 176 180 180 175 173 214 234 234 176 157 165 166 160 154 146 329 325 328 326 328 327 324 323 320 318
166 157 102 105 217 248 177 204 229 116 101 71 116 66 84 139 153 187 171 172 170 167 173 172 180 187 188 182 187 241 215 219 210 197 207 194 176 180 246 307 310 315 322 326 329 330 330 327 320
141 123 78 156 249 252 247 189 176 185 144 113 153 155 90 134 178 191 171 183 190 177 179 188 182 185 187 194 198 238 247 217 208 218 199 180 180 289 337 322 321 326 331 334 335 337 341 336 332
110 112 78 211 258 319 13 123 168 66 127 122 102 116 116 147 170 172 173 186 193 198 195 199 187 182 193 202 208 230 235 226 216 206 191 185 215 285 307 323 331 333 334 331 331 330 333 336 332
119 93 194 186 249 55 310 343 48 104 144 63 136 87 149 169 147 164 179 191 200 203 209 216 230 233 224 207 182 170 194 200 203 195 176 231 307 328 332 337 338 336 333 331 328 328 327 327 325
122 99 144 4 244 166 327 56 76 66 69 94 123 170 190 179 162 165 180 197 207 213 213 216 218 212 200 183 170 168 189 194 191 184 180 252 294 315 322 325 326 324 322 321 321 321 320 321 319
128 62 181 26 169 168 3 135 66 69 131 93 108 150 193 172 174 177 184 190 198 208 218 223 221 205 194 192 192 188 198 206 195 213 247 280 306 319 322 319 317 316 318 318 317 313 314 314 313
100 107 195 218 214 183 353 106 347 128 130 70 104 144 155 171 181 192 196 201 199 204 200 204 208 199 194 201 197 201 199 203 209 250 297 306 317 322 324 323 319 321 320 318 315 312 311 307 307
135 168 162 226 123 346 315 42 13 90 360 215 191 163 167 175 188 201 207 224 231 211 204 197 200 204 205 202 204 204 205 212 239 275 293 306 314 318 318 320 321 322 319 317 316 313 312 308 306
96 57 148 166 350 183 304 317 6 143 207 139 184 182 180 187 194 202 211 219 226 224 217 208 207 205 206 205 205 206 206 222 244 273 294 307 312 315 314 313 313 315 312 313 313 313 315 317 319
105 163 114 138 52 326 311 286 275 212 172 156 160 180 192 198 203 207 213 216 225 231 233 224 219 214 212 211 211 213 217 232 253 270 290 302 308 310 311 310 312 313 315 317 317 316 317 319 322
141 131 137 108 43 297 315 234 349 209 184 169 180 188 196 201 212 209 210 214 220 225 230 233 228 221 218 217 217 219 227 237 256 286 301 311 314 315 314 316 319 319 320 320 322 321 324 327 329
141 97 67 13 331 249 319 13 232 172 164 170 187 199 205 214 217 225 241 236 238 240 238 241 235 226 221 218 220 222 231 241 261 281 297 306 311 310 310 313 317 317 318 320 322 326 328 331 330
71 43 71 326 2 333 44 244 285 160 176 179 164 163 155 170 188 217 228 234 244 238 237 240 242 230 223 220 221 227 233 245 263 278 296 308 310 311 313 314 316 314 313 315 320 323 331 333 332
16 195 211 312 50 313 181 187 342 89 149 140 156 157 171 181 191 205 216 223 235 245 239 241 244 232 223 218 220 224 232 244 258 276 297 306 307 312 312 314 315 315 311 315 326 333 335 337 339
240 209 264 250 345 352 304 271 351 53 130 123 132 136 151 183 206 224 228 222 222 229 241 244 243 230 223 219 221 224 232 245 259 276 295 302 310 316 316 316 315 314 309 318 328 334 337 339 342
282 271 298 285 8 340 348 284 265 106 118 129 132 128 137 230 273 275 251 224 219 218 225 230 232 229 227 224 223 228 239 252 263 272 288 293 308 317 314 311 306 301 298 314 326 333 338 342 342
43 71 310 301 360 351 45 280 229 176 142 153 142 128 104 55 319 329 276 222 216 211 214 219 224 237 242 231 230 235 243 253 249 260 287 295 309 312 310 304 297 294 297 312 322 329 335 342 346
40 44 356 264 325 16 346 311 200 75 123 129 123 123 103 67 54 74 103 176 188 196 195 208 216 236 243 230 230 236 246 249 255 269 281 295 304 307 305 299 293 286 290 300 313 321 328 334 342
103 345 10 14 39 248 26 278 263 207 185 140 132 130 120 106 87 96 116 147 171 176 178 195 211 225 230 233 238 243 249 254 258 263 273 291 302 306 302 297 289 279 283 293 302 311 319 324 329
111 37 45 85 87 47 344 65 267 144 229 203 171 145 135 128 124 108 122 154 160 168 179 185 201 216 233 240 243 246 250 249 251 259 274 291 301 305 302 295 289 282 281 286 292 298 306 311 315
39 47 35 57 79 17 257 125 274 191 207 183 183 165 155 158 156 140 128 133 162 179 190 199 209 221 228 233 239 243 243 246 254 261 270 282 293 298 301 293 283 277 278 282 286 290 296 298 303
56 49 336 351 6 225 301 13 244 240 204 181 171 167 166 171 174 165 158 157 154 158 168 186 198 211 220 228 237 247 254 261 267 272 276 281 286 289 290 289 286 279 276 279 282 285 289 292 294
85 135 152 221 249 270 4 241 254 297 193 171 168 165 170 176 174 165 153 145 141 140 148 158 182 215 241 258 266 270 275 277 279 282 285 287 288 288 287 283 281 280 278 277 279 281 283 286 288
247 62 144 99 44 38 266 293 297 80 71 153 165 174 181 184 179 173 164 158 150 145 142 155 180 257 270 276 280 283 285 284 284 285 287 288 290 291 291 290 287 284 282 282 282 282 282 283 282
147 135 45 7 330 301 291 279 244 239 217 227 195 193 193 191 188 184 181 184 187 192 226 295 293 292 292 295 297 295 292 289 288 288 289 288 286 286 286 286 286 286 287 287 285 283 282 280 279
49 337 40 127 150 197 270 263 215 216 197 203 206 202 200 198 195 194 198 206 215 233 264 290 297 300 303 303 301 300 297 295 294 294 293 292 292 291 290 286 283 284 284 284 283 284 284 281 280
143 183 164 137 256 255 187 266 200 209 223 212 211 205 203 201 202 206 211 219 228 241 270 294 306 310 312 310 307 305 304 301 298 295 293 291 290 290 292 291 291 289 285 282 282 284 284 283 282